Location: Fennell Observatory
(35.2597°N, 89.5125°W)
Time: 16:46:06
(UTC-05:00)

Daily predictions for brighter satellites

Satellite Brightness Start Highest point End
(mag) Time Altitude Azimuth Time Altitude Azimuth Time Altitude Azimuth
SL-8 R/B 4.0 19:53:48 10° NW 19:58:34 57° NNE 20:03:18 10° ESE
Resurs 1-3 4.3 19:55:47 10° SE 19:59:45 35° ENE 20:03:45 10° N
Lacrosse 5 4.0 19:55:51 10° WNW 19:59:53 24° WSW 20:03:54 10° S
Helios 1B rocket 3.8 19:57:49 10° NE 20:00:43 19° E 20:03:37 10° SE
Cosmos 2227 Rocket 3.0 19:55:44 10° NNW 20:01:14 54° WSW 20:06:42 10° S
Cosmos 1726 4.4 19:59:57 10° SW 20:03:13 30° W 20:06:30 10° NNW
FengYun 1-2 T 4.3 19:58:03 10° SSE 20:03:41 73° ENE 20:09:20 10° N
Cosmos 2082 4.3 19:59:02 10° NNW 20:04:33 60° WSW 20:10:04 10° S
Cosmos 1869 Rocket 4.4 20:02:04 10° NNE 20:06:04 31° ENE 20:10:01 10° SE
SL-16 R/B 3.4 20:02:34 10° SSE 20:06:40 21° E 20:10:47 10° NE
Cosmos 1302 Rocket 4.3 20:01:45 10° S 20:06:41 46° ESE 20:11:39 10° NNE
Envisat 4.4 20:03:51 10° ESE 20:07:33 21° ENE 20:11:15 10° NNE
Hubble Space Telescope 3.2 20:06:20 10° SW 20:08:13 13° SSW 20:10:07 10° S
Cosmos 1151 Rocket 4.0 20:05:52 10° SSW 20:10:07 54° W 20:14:21 10° N
Milstar 3 3.4 20:02:00 10° WSW 20:10:52 52° S 20:17:18 10° ESE
GPS 2-04 Rocket1 3.3 20:17:46 10° W 20:21:08 39° SSW 20:24:17 12° SE
SEDSat Delta rocket 4.3 20:18:53 10° SW 20:23:36 34° SSE 20:28:23 12° E
OAO 3 Rocket 3.3 20:19:36 10° WSW 20:24:27 67° SSE 20:29:18 10° E
USA 234 4.0 20:20:01 10° ESE 20:26:01 41° NE 20:32:04 10° NNW
Resurs 01 Rocket 1.6 20:23:49 10° SSE 20:28:16 90° W 20:32:44 10° NNW
Atlas Centaur 2 3.6 20:22:19 10° SSW 20:28:17 30° SSE 20:34:13 13° E
Helios 1A 3.6 20:26:48 11° SE 20:30:28 37° ENE 20:34:24 10° N
Cosmos 2360 4.3 20:29:11 10° SSW 20:34:54 87° WNW 20:40:40 10° NNE
Molniya-1 2.5 20:33:23 10° SW 20:34:57 65° NW 20:36:48 10° NNE
SAR-Lupe-4 4.2 20:32:48 16° SE 20:35:14 36° ENE 20:38:33 10° N
GRACE-1 3.7 20:33:02 10° N 20:35:46 69° E 20:38:29 10° S
GRACE-2 3.7 20:33:26 10° N 20:36:10 68° E 20:38:53 10° S
FALCON 9 R/B 0.2 20:34:20 10° WSW 20:37:05 61° S 20:38:04 26° E
ERS-1 Rocket 4.3 20:42:11 17° E 20:44:12 22° ENE 20:47:59 10° NNE
Cosmos 1408 3.5 20:45:55 10° NNE 20:49:13 30° E 20:50:06 27° ESE
Cosmos 1486 Rocket 4.0 20:44:37 10° NNW 20:49:50 72° ENE 20:53:58 17° SSE
Cosmos 1455 3.1 20:46:55 10° SSW 20:50:36 50° W 20:54:18 10° N
ERBS 3.9 20:48:51 10° NNW 20:51:40 23° NE 20:52:42 20° ENE
SAR-Lupe-1 4.2 20:50:59 26° SE 20:52:44 53° ENE 20:56:15 10° N
Cosmos 1869 3.2 20:50:38 10° S 20:54:33 86° E 20:58:30 10° N
Cosmos 1992 Rocket 4.2 20:55:37 10° S 21:00:34 45° ESE 21:05:32 10° NNE
Cosmos 220 Rocket 4.5 20:56:44 10° N 21:01:00 43° ENE 21:02:28 32° ESE
SeaSat 1 4.2 21:00:11 15° ENE 21:01:36 17° NE 21:04:39 10° NNE
CZ-3B DEB 2.1 20:58:59 10° WNW 21:02:09 26° WSW 21:03:10 20° SSW
Gblst 52 Del rocket 4.3 20:56:51 10° NW 21:02:37 71° SW 21:05:47 26° SSE
OTV 4 1.5 21:00:21 10° W 21:02:55 29° SSW 21:03:10 29° SSW
Cosmos 2026 Rocket 3.9 20:59:23 10° N 21:05:36 65° E 21:09:53 20° SSE
USA 186 3.5 21:11:06 14° SW 21:12:44 24° W 21:15:04 10° NW
Cosmos 1933 3.5 21:14:41 47° ESE 21:15:04 49° E 21:18:58 10° NNE
DELTA 2 R/B (1) 3.7 21:11:01 10° WNW 21:16:35 65° SSW 21:18:45 37° SE
Cosmos 1315 Rocket 4.0 21:13:14 10° NNW 21:17:06 42° W 21:20:23 13° SSW
YAOGAN 6 2.8 21:20:14 50° ENE 21:20:14 50° ENE 21:23:40 10° N
Cosmos 1503 Rocket 3.9 21:15:45 10° NNW 21:21:00 70° ENE 21:22:48 41° SE
Cosmos 2263 Rocket 2.8 21:18:07 10° N 21:23:17 38° ENE 21:24:23 34° E
Cosmos 2322 Rocket 2.3 21:17:42 10° SSW 21:23:18 77° WNW 21:28:56 10° NNE
H-2A R/B 3.8 21:24:03 16° ENE 21:24:03 16° ENE 21:26:34 10° NNE
Cosmos 1354 Rocket 3.9 21:19:03 10° NNW 21:24:21 76° ENE 21:26:10 42° SSE
Cosmos 1655 Rocket 3.9 21:21:01 10° N 21:27:26 79° E 21:30:51 30° SSE
Meteor 2-10 Rocket 3.9 21:30:49 43° SE 21:32:16 54° E 21:37:55 10° NNE
Cosmos 1733 Rocket 2.9 21:29:17 10° N 21:33:45 84° E 21:34:27 63° SSE
Cosmos 2360 Rocket 2.3 21:34:16 48° ESE 21:34:23 48° ESE 21:39:48 10° NNE
Cosmos 1862 Rocket 3.6 21:34:03 36° SSW 21:35:49 79° W 21:40:18 10° N
Lacrosse 4 Rocket 1.4 21:35:16 10° NNW 21:39:36 75° ENE 21:39:39 75° ENE
Cosmos 2322 4.1 21:40:41 42° E 21:40:41 42° E 21:45:12 10° NE
Cosmos 1825 3.1 21:39:03 10° NNW 21:42:42 45° W 21:43:20 41° WSW
NOAA 11 4.2 21:42:48 54° ESE 21:43:30 59° ENE 21:48:53 10° N
Cosmos 1862 3.4 21:40:04 10° N 21:44:05 73° W 21:44:07 73° WSW
Envisat 4.1 21:42:59 19° SSW 21:46:14 40° W 21:51:00 10° NNW
Cosmos 968 Rocket 4.4 21:42:05 10° N 21:46:23 34° ENE 21:46:23 34° ENE
Cosmos 1939 Rocket 4.2 21:45:36 29° SW 21:46:55 37° W 21:50:41 10° NNW
YAOGAN 11 4.5 21:50:13 52° NE 21:50:13 52° NE 21:53:51 10° N
SL-16 R/B 3.2 21:44:58 10° SW 21:50:22 45° WNW 21:55:49 10° N
Cosmos 2266 Rocket 4.1 21:47:16 10° N 21:53:24 53° E 21:53:45 52° E
SPOT 5 3.2 21:54:50 52° NE 21:54:50 52° NE 21:58:57 10° N
Centaur AC-42 4.1 21:42:55 10° W 21:55:43 25° SSW 21:57:14 24° S
MetOp-B 4.0 22:03:13 84° SE 22:03:23 88° ENE 22:08:45 10° NNW
ATLAS 5 CENTAUR R/B 2.9 21:59:45 10° NNW 22:05:35 46° NE 22:05:54 45° ENE
BREEZE-M DEB (TANK) 4.2 21:47:29 10° NW 22:06:21 90° WSW 22:07:32 64° SE
Meteor 1-26 Rocket 4.1 22:06:22 71° SSW 22:07:02 86° W 22:12:49 10° N
OAO 3 Rocket 3.6 22:03:03 10° W 22:07:08 61° W 22:07:08 61° W
Nimbus 7 Rocket 4.3 22:02:16 10° NNE 22:08:11 75° E 22:08:11 75° E
USA 234 3.6 22:07:21 45° S 22:08:50 53° SW 22:15:14 10° NW
SEDSat Delta rocket 4.1 22:04:02 10° WSW 22:08:32 51° SW 22:08:32 51° SW
SPOT 1/Viking Rocket 4.1 22:11:28 49° NE 22:11:28 49° NE 22:15:39 10° N
ARGOS 3.1 22:11:51 73° NNE 22:11:51 73° NNE 22:16:49 10° N
Cosmos 489 Rocket 4.3 22:10:05 10° NNW 22:16:28 80° ENE 22:16:37 80° E
Atlas Centaur 2 3.1 22:09:55 10° WSW 22:16:53 55° S 22:16:53 55° S
ERS-1 Rocket 4.1 22:22:11 36° WSW 22:22:41 37° W 22:27:20 10° NNW
MOS 1-B Rocket 3.9 22:26:13 86° WNW 22:26:13 86° WNW 22:31:53 10° NNW
Cosmos 1844 Rocket 4.2 22:22:20 10° N 22:25:44 25° NE 22:25:44 25° NE
SeaSat 1 3.4 22:39:58 44° NW 22:39:58 44° NW 22:43:31 10° NNW
Cosmos 2219 Rocket 4.4 22:45:20 14° NE 22:45:20 14° NE 22:46:05 10° NE
H-2A R/B 4.3 22:44:20 20° N 22:44:20 20° N 22:45:43 10° N
Milstar 3 4.1 22:47:37 10° W 22:50:57 25° WSW 22:50:57 25° WSW
USA 229 DEB 4.1 22:51:56 42° WSW 22:54:02 59° NW 23:00:53 10° NNE
USA 229 4.1 22:52:13 45° WSW 22:54:08 60° NW 23:00:59 10° NNE
COSMOS 2428 4.0 23:05:01 34° N 23:05:01 34° N 23:08:14 10° NNE
H-2A R/B 3.5 23:04:41 32° NW 23:04:41 32° NW 23:07:31 10° NNW
Terra 3.8 23:05:45 25° N 23:05:45 25° N 23:07:43 10° NNW
Cosmos 2263 Rocket 4.0 23:02:31 10° NW 23:06:05 24° W 23:06:05 24° W
Cosmos 2360 Rocket 4.3 23:15:51 16° W 23:18:36 22° WNW 23:22:54 10° N
Cosmos 2333 Rocket 4.2 23:46:51 23° N 23:46:51 23° N 23:48:57 10° NNE
CZ-4C R/B 3.8 23:39:21 10° NNW 23:44:55 40° NNE 23:44:55 40° NNE
ATLAS 5 CENTAUR R/B 4.3 23:44:51 10° NW 23:47:28 22° WNW 23:47:28 22° WNW
Cosmos 2237 Rocket 4.4 23:56:36 20° NNE 23:56:36 20° NNE 23:58:14 10° NNE
